Time,TemperatureF,DewpointF,PressureIn,WindDirection,WindDirectionDegrees,WindSpeedMPH,WindSpeedGustMPH,Humidity,HourlyPrecipIn,Conditions,Clouds,dailyrainin,SoftwareType,DateUTC
2013-05-25 00:02:00,48.0,37.0,-100.00,SSW,200,0.0,0.0,64,0.00,,,-99.99,,2013-05-25 04:02:00,
2013-05-25 00:13:00,47.0,37.0,-100.00,SSW,200,0.0,0.0,65,0.00,,,-99.99,,2013-05-25 04:13:00,
2013-05-25 00:23:00,47.0,37.0,-100.00,South,180,0.0,0.0,66,0.00,,,-99.99,,2013-05-25 04:23:00,
2013-05-25 00:33:00,47.0,37.0,-100.00,SSW,195,0.0,0.0,67,0.00,,,-99.99,,2013-05-25 04:33:00,
2013-05-25 00:43:00,47.0,36.0,-100.00,SSW,205,0.0,0.0,67,0.00,,,-99.99,,2013-05-25 04:43:00,
2013-05-25 00:52:00,46.0,36.0,-100.00,SSW,205,0.0,0.0,67,0.00,,,-99.99,,2013-05-25 04:52:00,
2013-05-25 01:02:00,46.0,36.0,-100.00,SW,215,0.0,0.0,69,0.00,,,-99.99,,2013-05-25 05:02:00,
2013-05-25 01:12:00,46.0,36.0,-100.00,SSW,195,0.0,0.0,69,0.00,,,-99.99,,2013-05-25 05:12:00,
2013-05-25 01:22:00,45.0,37.0,-100.00,SSW,200,0.0,0.0,71,0.00,,,-99.99,,2013-05-25 05:22:00,
2013-05-25 01:32:00,45.0,37.0,-100.00,SSW,200,0.0,0.0,71,0.00,,,-99.99,,2013-05-25 05:32:00,
2013-05-25 01:43:00,45.0,37.0,-100.00,SSW,200,0.0,0.0,71,0.00,,,-99.99,,2013-05-25 05:43:00,
2013-05-25 01:52:00,45.0,37.0,-100.00,SSW,200,0.0,0.0,71,0.00,,,-99.99,,2013-05-25 05:52:00,
2013-05-25 02:02:00,45.0,37.0,-100.00,SSW,195,0.0,0.0,72,0.00,,,-99.99,,2013-05-25 06:02:00,
2013-05-25 02:12:00,45.0,37.0,-100.00,SSW,195,0.0,0.0,72,0.00,,,-99.99,,2013-05-25 06:12:00,
2013-05-25 02:22:00,44.0,37.0,-100.00,WNW,295,0.0,0.0,75,0.00,,,-99.99,,2013-05-25 06:22:00,
2013-05-25 02:32:00,44.0,37.0,-100.00,WNW,295,0.0,0.0,75,0.00,,,-99.99,,2013-05-25 06:32:00,
2013-05-25 02:42:00,43.0,37.0,-100.00,WNW,295,0.0,0.0,77,0.00,,,-99.99,,2013-05-25 06:42:00,
2013-05-25 02:52:00,43.0,37.0,-100.00,North,10,0.0,0.0,76,0.00,,,-99.99,,2013-05-25 06:52:00,
2013-05-25 03:01:00,43.0,37.0,-100.00,East,80,0.0,0.0,78,0.00,,,-99.99,,2013-05-25 07:01:00,
2013-05-25 03:11:00,42.0,37.0,-100.00,ENE,65,0.0,0.0,82,0.00,,,-99.99,,2013-05-25 07:11:00,
2013-05-25 03:21:00,42.0,37.0,-100.00,SSW,200,0.0,0.0,82,0.00,,,-99.99,,2013-05-25 07:21:00,
2013-05-25 03:32:00,42.0,37.0,-100.00,NNW,340,0.0,0.0,83,0.00,,,-99.99,,2013-05-25 07:32:00,
2013-05-25 03:42:00,42.0,37.0,-100.00,NNW,340,0.0,0.0,83,0.00,,,-99.99,,2013-05-25 07:42:00,
2013-05-25 03:52:00,41.0,37.0,-100.00,North,5,0.0,0.0,85,0.00,,,-99.99,,2013-05-25 07:52:00,
2013-05-25 04:02:00,41.0,37.0,-100.00,NNE,30,0.0,0.0,85,0.00,,,-99.99,,2013-05-25 08:02:00,
2013-05-25 04:11:00,41.0,37.0,-100.00,East,90,0.0,0.0,85,0.00,,,-99.99,,2013-05-25 08:11:00,
2013-05-25 04:23:00,40.0,37.0,-100.00,South,185,0.0,0.0,87,0.00,,,-99.99,,2013-05-25 08:23:00,
2013-05-25 04:32:00,41.0,37.0,-100.00,East,100,0.0,0.0,85,0.00,,,-99.99,,2013-05-25 08:32:00,
2013-05-25 04:42:00,41.0,36.0,-100.00,South,185,0.0,0.0,84,0.00,,,-99.99,,2013-05-25 08:42:00,
2013-05-25 04:51:00,41.0,36.0,-100.00,SSE,150,0.0,0.0,84,0.00,,,-99.99,,2013-05-25 08:51:00,
2013-05-25 05:02:00,41.0,36.0,-100.00,South,170,0.0,0.0,84,0.00,,,-99.99,,2013-05-25 09:02:00,
2013-05-25 05:11:00,40.0,36.0,-100.00,NNE,20,0.0,0.0,85,0.00,,,-99.99,,2013-05-25 09:11:00,
2013-05-25 05:21:00,39.0,36.0,-100.00,North,0,0.0,0.0,87,0.00,,,-99.99,,2013-05-25 09:21:00,
2013-05-25 05:33:00,40.0,36.0,-100.00,NNE,25,0.0,0.0,85,0.00,,,-99.99,,2013-05-25 09:33:00,
2013-05-25 05:43:00,40.0,36.0,-100.00,SSW,195,0.0,0.0,85,0.00,,,-99.99,,2013-05-25 09:43:00,
2013-05-25 05:52:00,40.0,36.0,-100.00,SSW,195,0.0,0.0,85,0.00,,,-99.99,,2013-05-25 09:52:00,
2013-05-25 06:03:00,40.0,36.0,-100.00,SSW,205,0.0,0.0,84,0.00,,,-99.99,,2013-05-25 10:03:00,
2013-05-25 06:12:00,40.0,36.0,-100.00,SSW,205,0.0,0.0,84,0.00,,,-99.99,,2013-05-25 10:12:00,
2013-05-25 06:22:00,40.0,36.0,-100.00,SSW,205,0.0,0.0,84,0.00,,,-99.99,,2013-05-25 10:22:00,
2013-05-25 06:33:00,40.0,36.0,-100.00,SSW,195,0.0,0.0,85,0.00,,,-99.99,,2013-05-25 10:33:00,
2013-05-25 06:42:00,39.0,35.0,-100.00,SSW,210,0.0,0.0,87,0.00,,,-99.99,,2013-05-25 10:42:00,
2013-05-25 06:52:00,40.0,36.0,-100.00,SW,215,0.0,0.0,84,0.00,,,-99.99,,2013-05-25 10:52:00,
2013-05-25 07:03:00,41.0,36.0,-100.00,South,190,0.0,0.0,83,0.00,,,-99.99,,2013-05-25 11:03:00,
2013-05-25 07:12:00,41.0,36.0,-100.00,NNW,345,0.0,0.0,83,0.00,,,-99.99,,2013-05-25 11:12:00,
2013-05-25 07:22:00,42.0,37.0,-100.00,NNE,15,0.0,0.0,80,0.00,,,-99.99,,2013-05-25 11:22:00,
2013-05-25 07:32:00,42.0,37.0,-100.00,WNW,295,0.0,0.0,80,0.00,,,-99.99,,2013-05-25 11:32:00,
2013-05-25 07:42:00,43.0,37.0,-100.00,North,5,0.0,0.0,80,0.00,,,-99.99,,2013-05-25 11:42:00,
2013-05-25 07:52:00,43.0,37.0,-100.00,NNE,15,0.0,0.0,79,0.00,,,-99.99,,2013-05-25 11:52:00,
2013-05-25 08:01:00,44.0,37.0,-100.00,NNE,15,0.0,0.0,79,0.00,,,-99.99,,2013-05-25 12:01:00,
2013-05-25 08:12:00,44.0,38.0,-100.00,North,0,0.0,0.0,78,0.00,,,-99.99,,2013-05-25 12:12:00,
2013-05-25 08:22:00,45.0,38.0,-100.00,NNE,15,0.0,0.0,77,0.00,,,-99.99,,2013-05-25 12:22:00,
2013-05-25 08:32:00,44.0,38.0,-100.00,East,80,0.0,0.0,78,0.00,,,-99.99,,2013-05-25 12:32:00,
2013-05-25 08:42:00,45.0,38.0,-100.00,East,90,0.0,0.0,76,0.00,,,-99.99,,2013-05-25 12:42:00,
2013-05-25 08:52:00,46.0,39.0,-100.00,East,95,0.0,0.0,76,0.00,,,-99.99,,2013-05-25 12:52:00,
2013-05-25 09:02:00,47.0,39.0,-100.00,ENE,75,0.0,0.0,72,0.00,,,-99.99,,2013-05-25 13:02:00,
2013-05-25 09:11:00,49.0,39.0,-100.00,NNE,20,0.0,0.0,67,0.00,,,-99.99,,2013-05-25 13:11:00,
2013-05-25 09:22:00,49.0,38.0,-100.00,NE,40,0.0,0.0,66,0.00,,,-99.99,,2013-05-25 13:22:00,
2013-05-25 09:32:00,49.0,37.0,-100.00,ENE,65,0.0,0.0,62,0.00,,,-99.99,,2013-05-25 13:32:00,
2013-05-25 09:42:00,51.0,38.0,-100.00,SE,145,0.0,0.0,62,0.00,,,-99.99,,2013-05-25 13:42:00,
2013-05-25 09:52:00,51.0,38.0,-100.00,South,180,0.0,0.0,62,0.00,,,-99.99,,2013-05-25 13:52:00,
2013-05-25 10:02:00,52.0,38.0,-100.00,NNE,20,0.0,0.0,59,0.00,,,-99.99,,2013-05-25 14:02:00,
2013-05-25 10:11:00,51.0,38.0,-100.00,NE,55,0.0,0.0,60,0.00,,,-99.99,,2013-05-25 14:11:00,
2013-05-25 10:22:00,53.0,39.0,-100.00,East,90,0.0,0.0,58,0.00,,,-99.99,,2013-05-25 14:22:00,
2013-05-25 10:32:00,53.0,38.0,-100.00,NNE,20,0.0,0.0,58,0.00,,,-99.99,,2013-05-25 14:32:00,
2013-05-25 10:42:00,55.0,38.0,-100.00,ENE,65,0.0,0.0,54,0.00,,,-99.99,,2013-05-25 14:42:00,
2013-05-25 10:52:00,55.0,39.0,-100.00,SSE,155,0.0,0.0,55,0.00,,,-99.99,,2013-05-25 14:52:00,
2013-05-25 11:01:00,55.0,39.0,-100.00,East,80,0.0,0.0,54,0.00,,,-99.99,,2013-05-25 15:01:00,
2013-05-25 11:11:00,55.0,39.0,-100.00,East,80,0.0,0.0,55,0.00,,,-99.99,,2013-05-25 15:11:00,
2013-05-25 11:22:00,56.0,39.0,-100.00,SE,145,0.0,0.0,52,0.00,,,-99.99,,2013-05-25 15:22:00,
2013-05-25 11:33:00,56.0,40.0,-100.00,ESE,120,0.0,0.0,53,0.00,,,-99.99,,2013-05-25 15:33:00,
2013-05-25 11:43:00,56.0,39.0,-100.00,East,95,0.0,0.0,53,0.00,,,-99.99,,2013-05-25 15:43:00,
2013-05-25 11:53:00,57.0,39.0,-100.00,ESE,120,0.0,0.0,52,0.00,,,-99.99,,2013-05-25 15:53:00,
2013-05-25 12:03:00,58.0,40.0,-100.00,East,80,0.0,0.0,51,0.00,,,-99.99,,2013-05-25 16:03:00,
2013-05-25 12:12:00,58.0,40.0,-100.00,ESE,120,0.0,0.0,50,0.00,,,-99.99,,2013-05-25 16:12:00,
2013-05-25 12:23:00,59.0,40.0,-100.00,ESE,115,0.0,0.0,49,0.00,,,-99.99,,2013-05-25 16:23:00,
2013-05-25 12:32:00,59.0,40.0,-100.00,East,90,0.0,0.0,48,0.00,,,-99.99,,2013-05-25 16:32:00,
2013-05-25 12:42:00,60.0,40.0,-100.00,NE,45,0.0,0.0,48,0.00,,,-99.99,,2013-05-25 16:42:00,
2013-05-25 12:52:00,60.0,41.0,-100.00,East,90,0.0,0.0,49,0.00,,,-99.99,,2013-05-25 16:52:00,
2013-05-25 13:03:00,60.0,40.0,-100.00,East,100,0.0,0.0,47,0.00,,,-99.99,,2013-05-25 17:03:00,
2013-05-25 13:11:00,60.0,40.0,-100.00,ESE,110,0.0,0.0,47,0.00,,,-99.99,,2013-05-25 17:11:00,
2013-05-25 13:22:00,61.0,39.0,-100.00,ESE,105,0.0,0.0,44,0.00,,,-99.99,,2013-05-25 17:22:00,
2013-05-25 13:32:00,61.0,39.0,-100.00,ESE,110,0.0,0.0,45,0.00,,,-99.99,,2013-05-25 17:32:00,
2013-05-25 13:42:00,60.0,38.0,-100.00,SE,125,0.0,0.0,44,0.00,,,-99.99,,2013-05-25 17:42:00,
2013-05-25 13:52:00,61.0,38.0,-100.00,SE,125,0.0,0.0,43,0.00,,,-99.99,,2013-05-25 17:52:00,
2013-05-25 14:02:00,61.0,38.0,-100.00,SE,145,0.0,0.0,43,0.00,,,-99.99,,2013-05-25 18:02:00,
2013-05-25 14:11:00,61.0,38.0,-100.00,ESE,120,0.0,0.0,42,0.00,,,-99.99,,2013-05-25 18:11:00,
2013-05-25 14:21:00,62.0,40.0,-100.00,ENE,70,0.0,0.0,44,0.00,,,-99.99,,2013-05-25 18:21:00,
2013-05-25 14:32:00,61.0,38.0,-100.00,ESE,120,0.0,0.0,42,0.00,,,-99.99,,2013-05-25 18:32:00,
2013-05-25 14:42:00,62.0,39.0,-100.00,ESE,105,0.0,0.0,42,0.00,,,-99.99,,2013-05-25 18:42:00,
2013-05-25 14:52:00,62.0,39.0,-100.00,SE,145,0.0,0.0,41,0.00,,,-99.99,,2013-05-25 18:52:00,
2013-05-25 15:02:00,62.0,39.0,-100.00,SE,130,0.0,0.0,43,0.00,,,-99.99,,2013-05-25 19:02:00,
2013-05-25 15:11:00,63.0,39.0,-100.00,SE,125,0.0,0.0,41,0.00,,,-99.99,,2013-05-25 19:11:00,
2013-05-25 15:22:00,62.0,38.0,-100.00,NE,50,0.0,0.0,41,0.00,,,-99.99,,2013-05-25 19:22:00,
2013-05-25 15:32:00,62.0,39.0,-100.00,East,85,0.0,0.0,41,0.00,,,-99.99,,2013-05-25 19:32:00,
2013-05-25 15:42:00,63.0,40.0,-100.00,SE,140,0.0,0.0,42,0.00,,,-99.99,,2013-05-25 19:42:00,
2013-05-25 15:52:00,63.0,39.0,-100.00,East,85,0.0,0.0,40,0.00,,,-99.99,,2013-05-25 19:52:00,
2013-05-25 16:02:00,63.0,38.0,-100.00,ENE,75,0.0,0.0,39,0.00,,,-99.99,,2013-05-25 20:02:00,
2013-05-25 16:11:00,64.0,38.0,-100.00,East,100,0.0,0.0,39,0.00,,,-99.99,,2013-05-25 20:11:00,
2013-05-25 16:22:00,64.0,38.0,-100.00,ESE,105,0.0,0.0,38,0.00,,,-99.99,,2013-05-25 20:22:00,
2013-05-25 16:32:00,64.0,38.0,-100.00,East,90,0.0,0.0,38,0.00,,,-99.99,,2013-05-25 20:32:00,
2013-05-25 16:42:00,63.0,38.0,-100.00,ESE,115,0.0,0.0,38,0.00,,,-99.99,,2013-05-25 20:42:00,
2013-05-25 16:52:00,63.0,37.0,-100.00,East,80,0.0,0.0,38,0.00,,,-99.99,,2013-05-25 20:52:00,
2013-05-25 17:02:00,64.0,38.0,-100.00,ESE,110,0.0,0.0,38,0.00,,,-99.99,,2013-05-25 21:02:00,
2013-05-25 17:11:00,63.0,38.0,-100.00,East,90,0.0,0.0,39,0.00,,,-99.99,,2013-05-25 21:11:00,
2013-05-25 17:21:00,63.0,37.0,-100.00,ESE,115,0.0,0.0,38,0.00,,,-99.99,,2013-05-25 21:21:00,
2013-05-25 17:33:00,64.0,39.0,-100.00,ESE,105,0.0,0.0,40,0.00,,,-99.99,,2013-05-25 21:33:00,
2013-05-25 17:43:00,63.0,38.0,-100.00,East,90,0.0,0.0,40,0.00,,,-99.99,,2013-05-25 21:43:00,
2013-05-25 17:53:00,63.0,38.0,-100.00,ESE,110,0.0,0.0,40,0.00,,,-99.99,,2013-05-25 21:53:00,
2013-05-25 18:03:00,65.0,40.0,-100.00,East,85,0.0,0.0,39,0.00,,,-99.99,,2013-05-25 22:03:00,
2013-05-25 18:13:00,65.0,39.0,-100.00,ESE,105,0.0,0.0,39,0.00,,,-99.99,,2013-05-25 22:13:00,
2013-05-25 18:23:00,63.0,37.0,-100.00,ESE,120,0.0,0.0,38,0.00,,,-99.99,,2013-05-25 22:23:00,
2013-05-25 18:32:00,63.0,37.0,-100.00,ESE,115,0.0,0.0,37,0.00,,,-99.99,,2013-05-25 22:32:00,
2013-05-25 18:42:00,62.0,37.0,-100.00,ESE,110,0.0,0.0,39,0.00,,,-99.99,,2013-05-25 22:42:00,
2013-05-25 18:52:00,63.0,38.0,-100.00,SE,125,0.0,0.0,39,0.00,,,-99.99,,2013-05-25 22:52:00,
2013-05-25 19:02:00,63.0,37.0,-100.00,ESE,120,0.0,0.0,38,0.00,,,-99.99,,2013-05-25 23:02:00,
2013-05-25 19:12:00,62.0,37.0,-100.00,SE,135,0.0,0.0,38,0.00,,,-99.99,,2013-05-25 23:12:00,
2013-05-25 19:22:00,62.0,37.0,-100.00,SE,140,0.0,0.0,39,0.00,,,-99.99,,2013-05-25 23:22:00,
2013-05-25 19:32:00,62.0,37.0,-100.00,SSE,150,0.0,0.0,40,0.00,,,-99.99,,2013-05-25 23:32:00,
2013-05-25 19:42:00,62.0,37.0,-100.00,ESE,115,0.0,0.0,39,0.00,,,-99.99,,2013-05-25 23:42:00,
2013-05-25 19:52:00,62.0,37.0,-100.00,SE,135,0.0,0.0,39,0.00,,,-99.99,,2013-05-25 23:52:00,
2013-05-25 20:02:00,62.0,37.0,-100.00,SE,140,0.0,0.0,39,0.00,,,-99.99,,2013-05-26 00:02:00,
2013-05-25 20:11:00,62.0,37.0,-100.00,SSE,165,0.0,0.0,39,0.00,,,-99.99,,2013-05-26 00:11:00,
2013-05-25 20:22:00,62.0,37.0,-100.00,SSE,165,0.0,0.0,39,0.00,,,-99.99,,2013-05-26 00:22:00,
2013-05-25 20:32:00,61.0,37.0,-100.00,South,175,0.0,0.0,40,0.00,,,-99.99,,2013-05-26 00:32:00,
2013-05-25 20:42:00,61.0,37.0,-100.00,SSE,165,0.0,0.0,40,0.00,,,-99.99,,2013-05-26 00:42:00,
2013-05-25 20:52:00,61.0,37.0,-100.00,SSE,155,0.0,0.0,40,0.00,,,-99.99,,2013-05-26 00:52:00,
2013-05-25 21:01:00,60.0,37.0,-100.00,SSE,165,0.0,0.0,42,0.00,,,-99.99,,2013-05-26 01:01:00,
2013-05-25 21:11:00,60.0,37.0,-100.00,South,175,0.0,0.0,43,0.00,,,-99.99,,2013-05-26 01:11:00,
2013-05-25 21:21:00,60.0,37.0,-100.00,SSW,195,0.0,0.0,43,0.00,,,-99.99,,2013-05-26 01:21:00,
2013-05-25 21:32:00,59.0,38.0,-100.00,South,185,0.0,0.0,44,0.00,,,-99.99,,2013-05-26 01:32:00,
2013-05-25 21:42:00,58.0,37.0,-100.00,South,190,0.0,0.0,45,0.00,,,-99.99,,2013-05-26 01:42:00,
2013-05-25 21:52:00,58.0,37.0,-100.00,South,180,0.0,0.0,45,0.00,,,-99.99,,2013-05-26 01:52:00,
2013-05-25 22:02:00,58.0,37.0,-100.00,SSE,165,0.0,0.0,45,0.00,,,-99.99,,2013-05-26 02:02:00,
2013-05-25 22:11:00,58.0,35.0,-100.00,South,180,0.0,0.0,42,0.00,,,-99.99,,2013-05-26 02:11:00,
2013-05-25 22:21:00,57.0,35.0,-100.00,South,190,0.0,0.0,42,0.00,,,-99.99,,2013-05-26 02:21:00,
2013-05-25 22:32:00,57.0,34.0,-100.00,South,175,0.0,0.0,42,0.00,,,-99.99,,2013-05-26 02:32:00,
2013-05-25 22:42:00,57.0,34.0,-100.00,South,175,0.0,0.0,43,0.00,,,-99.99,,2013-05-26 02:42:00,
2013-05-25 22:52:00,56.0,35.0,-100.00,South,190,0.0,0.0,44,0.00,,,-99.99,,2013-05-26 02:52:00,
2013-05-25 23:01:00,56.0,35.0,-100.00,South,190,0.0,0.0,44,0.00,,,-99.99,,2013-05-26 03:01:00,
2013-05-25 23:11:00,55.0,34.0,-100.00,SSW,210,0.0,0.0,45,0.00,,,-99.99,,2013-05-26 03:11:00,
2013-05-25 23:22:00,55.0,34.0,-100.00,South,180,0.0,0.0,45,0.00,,,-99.99,,2013-05-26 03:22:00,
2013-05-25 23:33:00,55.0,34.0,-100.00,South,185,0.0,0.0,45,0.00,,,-99.99,,2013-05-26 03:33:00,
2013-05-25 23:43:00,55.0,34.0,-100.00,South,180,0.0,0.0,45,0.00,,,-99.99,,2013-05-26 03:43:00,
2013-05-25 23:53:00,54.0,33.0,-100.00,SSW,195,0.0,0.0,45,0.00,,,-99.99,,2013-05-26 03:53:00,